User: anonymous   Login
Location: Bishop's University Astronomical Observatory
(45.3661°N, 71.8475°W)
Time: 03:02:32
(UTC-05:00)
Language:

Meteor 2-5 Rocket - Orbit

View from above orbital plane
View from above orbital plane
View from above satellite
View from above satellite

Ground track
Ground track

The orbit data is extracted from the following two-line orbital elements,

1 11608U 79095B   14352.21055416  .00000035  00000-0  13564-4 0  7196
2 11608 081.2135 015.9408 0054420 202.8258 226.2215 14.06038330801925
Epoch (UTC): 18 December 2014 05:03:11
Eccentricity: 0.0054420
inclination: 81.2135°
perigee height: 833 km
apogee height: 912 km
right ascension of ascending node: 15.9408°
argument of perigee: 202.8258°
revolutions per day: 14.06038330
mean anomaly at epoch: 226.2215°
orbit number at epoch: 80192

The dashed part of the orbit path shows where the satellite is in the earth's shadow,  

DLR